Torna al catalogo

STARLINK-34865

AttivoComunicazioniVLEO
NORAD 65200·PAYLOAD·🇺🇸 United States

Lanciato Aug 14, 2025 da Cape Canaveral Space Force Station

Loading…

Prossimi Passaggi (prossime 24 ore)

TLE

AggiornatoSource: CelesTrak SupGP

Epoca: Sep 15, 2026, 04:08 UTC

1 65200C 25176C   26258.17270833  .00073390  00000+0  21676-2 0  2581
2 65200  53.1599 348.8754 0001313  82.9230 280.4384 15.34364673    10

Traccia STARLINK-34865 in tempo reale con AllMySat

Download on the App Store